Total_Precipitation_Accumulation
0.00 0.00 0.00 0.00 0.00 0.02 0.06 0.10 0.17 0.24 0.37 0.38 0.34 0.35 0.38 0.45 0.73 1.21 0.69 0.46 0.31 0.19 0.09 0.06 0.06 0.07 0.08 0.11 0.15 0.19 0.18 0.16 0.15 0.15 0.14 0.14 0.13 0.13 0.15 0.16 0.18 0.24 0.27 0.25 0.25 0.28 0.27 0.24 0.18
0.00 0.00 0.00 0.00 0.00 0.04 0.10 0.20 0.29 0.26 0.30 0.37 0.35 0.32 0.30 0.31 0.30 0.33 0.40 0.38 0.26 0.17 0.13 0.07 0.06 0.07 0.07 0.10 0.13 0.17 0.20 0.21 0.21 0.22 0.18 0.15 0.16 0.16 0.16 0.16 0.18 0.22 0.24 0.22 0.20 0.20 0.18 0.15 0.13
0.00 0.00 0.00 0.00 0.00 0.03 0.14 0.24 0.34 0.32 0.35 0.36 0.41 0.43 0.41 0.40 0.38 0.39 0.39 0.31 0.22 0.17 0.18 0.14 0.10 0.09 0.08 0.08 0.13 0.19 0.23 0.24 0.26 0.26 0.22 0.18 0.15 0.15 0.17 0.21 0.25 0.27 0.27 0.28 0.27 0.22 0.15 0.12 0.13
0.00 0.00 0.01 0.01 0.01 0.04 0.11 0.21 0.32 0.39 0.45 0.39 0.38 0.46 0.46 0.46 0.44 0.44 0.41 0.33 0.22 0.18 0.18 0.16 0.17 0.13 0.12 0.12 0.14 0.21 0.27 0.28 0.26 0.25 0.25 0.23 0.19 0.17 0.22 0.29 0.33 0.33 0.32 0.36 0.41 0.34 0.24 0.17 0.15
0.00 0.01 0.01 0.01 0.02 0.06 0.15 0.22 0.31 0.48 0.51 0.40 0.37 0.57 0.74 0.76 0.62 0.53 0.47 0.42 0.33 0.25 0.23 0.23 0.25 0.23 0.21 0.20 0.23 0.28 0.31 0.33 0.34 0.32 0.31 0.31 0.24 0.22 0.27 0.36 0.39 0.39 0.38 0.38 0.35 0.28 0.23 0.20 0.18
0.00 0.01 0.01 0.02 0.07 0.09 0.17 0.27 0.32 0.44 0.53 0.45 0.46 0.68 1.08 1.17 0.96 0.78 0.58 0.60 0.52 0.38 0.31 0.31 0.33 0.37 0.38 0.36 0.37 0.38 0.36 0.36 0.37 0.37 0.37 0.34 0.27 0.25 0.29 0.37 0.44 0.49 0.46 0.38 0.31 0.25 0.20 0.19 0.19
0.00 0.01 0.01 0.02 0.06 0.13 0.17 0.21 0.36 0.47 0.55 0.66 0.63 0.78 1.09 1.22 1.08 0.88 0.81 0.82 0.72 0.62 0.50 0.43 0.41 0.43 0.45 0.46 0.45 0.46 0.44 0.41 0.39 0.38 0.37 0.35 0.32 0.27 0.32 0.39 0.44 0.44 0.37 0.33 0.29 0.25 0.21 0.18 0.16
0.00 0.01 0.01 0.02 0.06 0.13 0.20 0.27 0.43 0.51 0.63 0.72 0.64 0.83 1.25 1.31 1.07 0.98 1.06 1.03 1.02 1.14 1.31 0.91 0.61 0.53 0.47 0.46 0.51 0.55 0.57 0.55 0.48 0.42 0.36 0.34 0.34 0.35 0.40 0.42 0.43 0.40 0.33 0.28 0.28 0.25 0.21 0.19 0.17
0.00 0.01 0.01 0.03 0.08 0.18 0.23 0.30 0.36 0.38 0.54 0.58 0.51 0.65 1.11 1.17 1.01 1.05 1.25 1.41 1.29 1.44 1.69 1.17 0.86 0.75 0.70 0.70 0.64 0.69 0.70 0.65 0.59 0.53 0.48 0.46 0.54 0.70 0.74 0.58 0.58 0.48 0.41 0.38 0.36 0.32 0.28 0.25 0.23
0.01 0.01 0.04 0.04 0.08 0.17 0.28 0.26 0.34 0.43 0.54 0.59 0.52 0.55 0.81 1.14 1.22 1.19 1.33 1.79 1.78 1.54 1.40 1.37 1.32 1.13 0.99 0.96 1.01 0.99 0.87 0.83 0.75 0.82 0.70 0.77 1.12 1.24 1.07 1.02 0.89 0.72 0.59 0.52 0.49 0.48 0.42 0.36 0.37
0.01 0.02 0.06 0.10 0.13 0.23 0.29 0.37 0.46 0.64 0.64 0.67 0.75 0.80 1.06 1.28 1.37 1.43 1.54 1.84 2.15 2.15 1.66 1.54 1.49 1.39 1.26 1.35 1.43 1.40 1.30 1.28 1.16 1.23 1.11 1.20 1.34 1.31 1.31 1.36 1.20 1.08 0.94 0.93 0.94 0.77 0.62 0.59 0.65
0.02 0.04 0.06 0.18 0.22 0.22 0.28 0.36 0.43 0.54 0.73 0.77 0.83 1.06 1.37 1.40 1.51 1.80 1.86 2.01 2.18 2.35 2.10 1.69 1.68 1.69 1.84 1.89 1.77 1.68 1.70 1.68 1.58 1.60 1.44 1.53 1.66 1.70 1.63 1.73 1.62 1.60 1.49 1.48 1.34 1.21 1.03 0.92 0.81
0.05 0.08 0.09 0.16 0.20 0.23 0.26 0.36 0.39 0.41 0.43 0.56 0.72 1.07 1.39 1.19 1.48 1.92 1.98 2.24 2.42 2.36 2.15 1.95 2.05 2.06 2.08 2.10 2.17 2.05 1.98 2.14 2.11 2.11 1.97 1.95 1.88 1.81 1.81 1.82 1.86 1.80 1.87 1.87 1.77 1.53 1.32 1.17 1.01
0.06 0.06 0.07 0.12 0.14 0.19 0.23 0.31 0.32 0.32 0.30 0.41 0.56 0.77 1.02 1.17 1.44 1.78 2.01 2.42 2.46 2.31 2.30 2.21 2.37 2.22 2.15 2.27 2.44 2.39 2.22 2.40 2.58 2.73 2.63 2.35 2.21 2.12 2.11 2.21 2.20 1.99 1.99 2.08 2.10 1.93 1.71 1.44 1.26
0.08 0.06 0.07 0.10 0.08 0.11 0.15 0.31 0.36 0.32 0.32 0.37 0.52 0.63 0.79 1.11 1.41 1.84 2.12 2.47 2.52 2.43 2.36 2.39 2.26 2.39 2.50 2.59 2.57 2.50 2.51 2.62 2.78 2.91 2.97 2.68 2.40 2.42 2.40 2.52 2.51 2.21 2.12 2.24 2.32 2.26 2.10 1.74 1.48
0.08 0.08 0.11 0.11 0.09 0.11 0.17 0.40 0.53 0.48 0.40 0.40 0.50 0.54 0.74 1.13 1.37 1.75 2.04 2.25 2.28 2.42 2.69 2.65 2.26 2.48 2.64 2.67 2.67 2.56 2.65 2.85 3.01 3.00 3.07 2.90 2.59 2.51 2.57 2.51 2.38 2.31 2.37 2.55 2.70 2.63 2.53 2.27 2.02
0.07 0.10 0.14 0.15 0.13 0.14 0.19 0.40 0.58 0.54 0.43 0.44 0.49 0.60 0.77 1.04 1.36 1.68 2.00 2.33 2.43 2.65 3.03 2.74 2.34 2.47 2.58 2.74 2.84 2.69 2.73 3.04 3.26 3.33 3.19 2.87 2.62 2.62 2.75 2.80 2.76 2.68 2.70 2.74 2.67 2.82 2.67 2.70 2.51
0.09 0.12 0.22 0.21 0.20 0.20 0.20 0.33 0.49 0.60 0.59 0.59 0.60 0.72 0.92 1.01 1.13 1.34 1.76 2.19 2.48 2.88 3.37 2.99 2.51 2.54 2.78 2.79 2.76 2.83 3.00 3.30 3.55 3.47 3.24 3.04 3.00 2.97 3.04 3.04 3.09 3.13 3.18 3.02 2.93 2.91 2.74 2.63 2.54
0.09 0.11 0.21 0.29 0.25 0.24 0.27 0.40 0.52 0.66 0.69 0.63 0.73 0.91 0.89 0.89 1.00 1.15 1.60 2.08 2.43 2.90 3.18 3.13 2.90 2.93 3.04 3.13 2.95 3.10 3.34 3.64 3.87 3.79 3.69 3.63 3.58 3.52 3.52 3.54 3.51 3.39 3.33 3.19 3.01 2.85 2.76 2.58 2.37
0.06 0.09 0.16 0.25 0.19 0.18 0.28 0.50 0.71 0.76 0.86 0.84 0.82 1.02 0.94 0.90 1.03 1.27 1.69 1.99 2.39 2.74 2.88 3.12 3.18 3.17 3.01 3.34 3.58 3.79 4.08 4.22 4.46 4.71 4.79 4.65 4.42 4.19 3.99 3.91 3.71 3.41 3.27 3.16 2.97 2.81 2.67 2.43 2.27
0.04 0.07 0.13 0.18 0.15 0.18 0.32 0.71 0.86 0.97 0.97 1.03 1.05 1.18 1.15 1.15 1.26 1.52 1.80 1.96 2.20 2.58 2.81 3.08 3.34 3.39 3.30 3.72 4.26 4.68 4.95 4.94 4.99 5.05 5.12 5.06 4.64 4.27 3.97 3.68 3.51 3.31 3.13 3.00 2.93 2.79 2.67 2.47 2.30
0.03 0.04 0.07 0.10 0.12 0.25 0.29 0.67 0.96 1.08 1.18 1.13 1.17 1.18 1.29 1.19 1.18 1.41 1.63 2.00 2.08 2.36 2.63 2.86 3.19 3.54 3.83 4.25 4.78 5.33 5.59 5.70 5.60 5.30 5.07 4.76 4.33 3.94 3.51 3.27 3.24 3.08 2.89 2.74 2.55 2.40 2.33 2.29 2.22
0.03 0.02 0.05 0.08 0.11 0.23 0.29 0.50 0.93 1.15 1.19 1.22 1.26 1.22 1.28 1.20 1.10 1.19 1.34 1.63 1.89 2.13 2.38 2.67 2.97 3.35 3.99 4.78 5.35 5.72 5.99 5.95 5.55 5.08 4.51 4.07 3.73 3.41 3.13 2.91 2.92 2.83 2.58 2.34 2.12 1.92 1.84 1.86 1.94
0.02 0.02 0.07 0.10 0.14 0.32 0.28 0.45 0.97 1.20 1.25 1.30 1.26 1.26 1.27 1.21 1.17 1.19 1.27 1.48 1.68 1.84 2.06 2.36 2.77 3.09 3.62 4.34 4.96 5.28 5.50 5.46 5.10 4.49 3.95 3.57 3.17 2.85 2.58 2.32 2.17 2.06 1.88 1.77 1.67 1.56 1.50 1.50 1.59
0.01 0.04 0.17 0.29 0.33 0.34 0.29 0.49 0.99 1.16 1.23 1.29 1.33 1.37 1.30 1.24 1.22 1.20 1.21 1.32 1.49 1.60 1.78 1.99 2.32 2.76 3.12 3.50 4.05 4.24 4.31 4.15 3.79 3.51 3.29 2.91 2.53 2.20 1.93 1.73 1.60 1.53 1.46 1.43 1.43 1.40 1.36 1.28 1.26
0.02 0.03 0.20 0.36 0.40 0.45 0.52 0.85 1.27 1.24 1.29 1.29 1.29 1.24 1.20 1.21 1.12 1.12 1.11 1.20 1.39 1.53 1.68 1.80 1.99 2.35 2.66 2.77 2.93 2.94 2.89 2.82 2.69 2.50 2.27 2.02 1.77 1.62 1.48 1.32 1.22 1.21 1.24 1.23 1.24 1.22 1.15 1.05 0.98
0.02 0.04 0.11 0.16 0.24 0.42 0.74 1.15 1.51 1.62 1.51 1.37 1.34 1.22 1.16 1.17 1.11 1.11 1.10 1.13 1.25 1.35 1.49 1.54 1.55 1.70 1.80 1.87 1.94 2.00 2.00 1.88 1.86 1.80 1.62 1.47 1.31 1.17 1.09 1.00 0.98 0.96 0.92 0.88 0.87 0.87 0.88 0.89 0.89
0.03 0.04 0.07 0.14 0.30 0.54 0.84 1.31 1.65 1.88 1.75 1.42 1.26 1.14 1.09 1.10 1.10 1.11 1.10 1.12 1.09 1.10 1.18 1.29 1.31 1.32 1.32 1.34 1.32 1.40 1.40 1.31 1.22 1.14 1.08 0.99 0.88 0.78 0.74 0.70 0.69 0.71 0.73 0.70 0.67 0.70 0.75 0.77 0.81
0.05 0.06 0.08 0.15 0.22 0.43 0.85 1.43 1.57 1.95 1.93 1.69 1.43 1.20 1.17 1.20 1.18 1.13 1.10 1.04 0.97 0.93 0.93 1.01 1.07 1.10 1.13 1.14 1.12 1.13 1.12 1.03 0.93 0.88 0.82 0.73 0.67 0.63 0.60 0.61 0.60 0.60 0.62 0.65 0.70 0.71 0.74 0.80 0.79
0.09 0.10 0.13 0.28 0.32 0.32 0.74 1.58 1.63 1.77 1.91 1.87 1.71 1.48 1.31 1.24 1.17 1.11 1.05 1.03 0.97 0.91 0.85 0.87 0.89 0.86 0.90 0.94 1.01 1.05 0.98 0.92 0.85 0.77 0.71 0.67 0.60 0.58 0.59 0.61 0.59 0.54 0.52 0.56 0.62 0.65 0.66 0.75 0.77